Location: Montclair
(37.8322°N, 122.2092°W)
Time: 15:25:58
(UTC+00:00)

Cosmos 540 Rocket - Pass Details

Date: 08 September 2024
Orbit: 737 x 749 km, 74.1° (Epoch: 07 October)

Event Time Altitude Azimuth Distance (km) Brightness Sun altitude
Rises 12:13:26 0° 347° (NNW) 3,181 6.8 -18.3°
Reaches altitude 10° 12:15:52 10° 353° (N) 2,256 6.1 -17.9°
Maximum altitude 12:20:49 48° 68° (ENE) 965 4.5 -17.0°
Drops below altitude 10° 12:25:44 10° 143° (SE) 2,250 6.1 -16.1°
Sets 12:28:09 0° 149° (SSE) 3,172 6.8 -15.6°
